Weather History for Lemoore NAS, CA

Change the Weather History Date:

Friday, March 14, 2014

  Actual Average Record
Temperature  
Mean Temperature 62 °F -  
Max Temperature 82 °F 67 °F 86 °F (2007)
Min Temperature 43 °F 43 °F 33 °F (2002)
Degree Days  
Heating Degree Days 2    
Growing Degree Days 12 (Base 50)    
Moisture  
Dew Point 33 °F    
Average Humidity 37    
Maximum Humidity 56    
Minimum Humidity 16    
Precipitation  
Precipitation 0.00 in - - ()
Sea Level Pressure  
Sea Level Pressure 30.12 in    
Wind  
Wind Speed 7 mph (NW)    
Max Wind Speed 15 mph    
Max Gust Speed -    
Visibility 10 miles    
Events      
Averages and records for this station are not official NWS values.
T = Trace of Precipitation, MM = Missing Value Source: NWS Daily Summary

Daily Weather History Graph

Daily Weather History Graph

Search for Another Location

Airport:

Trip Planner

Search our weather history database for the weather conditions in past years. The results will help you decide how hot, cold, wet, or windy it might be!

Date:

Astronomy

Mar. 14, 2014 Rise Set
Actual Time 7:11 AM PDT 7:06 PM PDT
Civil Twilight 6:46 AM PDT 7:32 PM PDT
Nautical Twilight 6:16 AM PDT 8:02 PM PDT
Astronomical Twilight 5:46 AM PDT 8:32 PM PDT
Moon 5:35 PM PDT (3/14) 5:52 AM PDT (3/14)
Length of Visible Light 12h 45m
Length of Day
11h 54m
Waxing Gibbous, 96% of the Moon is Illuminated
Mar 14
Waxing Gibbous
Mar 16
Full
Mar 23
Last Quarter
Mar 30
New
Apr 7
First Quarter

Hourly Weather History & Observations

Time (PDT) Temp. Windchill Dew Point Humidity Pressure Visibility Wind Dir Wind Speed Gust Speed Precip Events Conditions
12:56 AM 51.1 °F - 28.0 °F 41% 30.04 in 10.0 mi SW 10.4 mph - N/A   Clear
1:56 AM 48.9 °F - 28.9 °F 46% 30.05 in 10.0 mi SSW 8.1 mph - N/A   Clear
2:56 AM 53.1 °F - 30.0 °F 41% 30.05 in 10.0 mi Calm Calm - N/A   Clear
3:56 AM 46.9 °F - 28.9 °F 50% 30.05 in 10.0 mi NE 4.6 mph - N/A   Clear
4:56 AM 44.1 °F 42.5 °F 28.0 °F 53% 30.06 in 10.0 mi South 3.5 mph - N/A   Clear
5:56 AM 43.0 °F 38.2 °F 28.0 °F 56% 30.07 in 10.0 mi SSW 8.1 mph - N/A   Clear
6:56 AM 43.0 °F 38.2 °F 28.0 °F 56% 30.09 in 10.0 mi West 8.1 mph - N/A   Clear
7:56 AM 46.9 °F - 30.9 °F 54% 30.12 in 10.0 mi Calm Calm - N/A   Partly Cloudy
8:56 AM 54.0 °F - 33.1 °F 45% 30.14 in 10.0 mi Variable 3.5 mph - N/A   Partly Cloudy
9:56 AM 62.1 °F - 36.0 °F 38% 30.15 in 10.0 mi Calm Calm - N/A   Partly Cloudy
10:56 AM 69.1 °F - 35.1 °F 29% 30.16 in 10.0 mi North 4.6 mph - N/A   Scattered Clouds
11:56 AM 73.0 °F - 34.0 °F 24% 30.15 in 10.0 mi NW 4.6 mph - N/A   Scattered Clouds
12:56 PM 77.0 °F - 35.1 °F 22% 30.14 in 10.0 mi NNW 6.9 mph - N/A   Scattered Clouds
1:56 PM 78.1 °F - 33.1 °F 19% 30.12 in 10.0 mi NW 9.2 mph - N/A   Mostly Cloudy
2:56 PM 80.1 °F - 30.9 °F 17% 30.11 in 10.0 mi North 8.1 mph - N/A   Mostly Cloudy
3:56 PM 82.0 °F - 30.9 °F 16% 30.10 in 10.0 mi North 12.7 mph - N/A   Scattered Clouds
4:56 PM 81.0 °F - 30.0 °F 16% 30.09 in 10.0 mi North 15.0 mph - N/A   Partly Cloudy
5:56 PM 79.0 °F - 33.1 °F 19% 30.09 in 10.0 mi North 13.8 mph - N/A   Clear
6:56 PM 73.9 °F - 37.0 °F 26% 30.11 in 10.0 mi North 10.4 mph - N/A   Clear
7:56 PM 69.1 °F - 37.0 °F 31% 30.14 in 10.0 mi NNW 10.4 mph - N/A   Clear
8:56 PM 62.1 °F - 37.0 °F 39% 30.16 in 10.0 mi WNW 10.4 mph - N/A   Clear
9:56 PM 60.1 °F - 37.9 °F 44% 30.18 in 10.0 mi WNW 9.2 mph - N/A   Clear
10:56 PM 57.0 °F - 39.9 °F 53% 30.19 in 10.0 mi NW 10.4 mph - N/A   Clear
11:56 PM 57.9 °F - 39.9 °F 51% 30.20 in 10.0 mi North 6.9 mph - N/A   Clear